Weather History for Joliet, IL

Change the Weather History Date:

Monday, March 10, 2014

  Actual Average (KLOT) Record (KLOT)
Temperature  
Mean Temperature 44 °F 36 °F  
Max Temperature 54 °F 45 °F 64 °F (2010)
Min Temperature 34 °F 28 °F 3 °F (2003)
Degree Days  
Heating Degree Days 21 29  
Month to date heating degree days 305  
Since 1 July heating degree days 5033  
Cooling Degree Days 0 0  
Month to date cooling degree days 0  
Year to date cooling degree days 0  
Moisture  
Dew Point 34 °F    
Average Humidity 67    
Maximum Humidity 91    
Minimum Humidity 50    
Precipitation  
Precipitation 0.00 in 0.09 in 1.32 in (2009)
Month to date precipitation 0.87  
Year to date precipitation 4.58  
Snow  
Snow 0.00 in 0.20 in 2.30 in (1993)
Month to date snowfall 2.2  
Since 1 July snowfall 29.6  
Snow Depth -    
Sea Level Pressure  
Sea Level Pressure 29.74 in    
Wind  
Wind Speed 8 mph (SW)    
Max Wind Speed 14 mph    
Max Gust Speed 21 mph    
Visibility 9 miles    
Events      
T = Trace of Precipitation, MM = Missing Value Source: NWS Daily Summary

Daily Weather History Graph

Daily Weather History Graph

Search for Another Location

Airport:

Trip Planner

Search our weather history database for the weather conditions in past years. The results will help you decide how hot, cold, wet, or windy it might be!

Date:

Astronomy

Mar. 10, 2014 Rise Set
Actual Time 7:12 AM CDT 6:53 PM CDT
Civil Twilight 6:45 AM CDT 7:21 PM CDT
Nautical Twilight 6:13 AM CDT 7:53 PM CDT
Astronomical Twilight 5:40 AM CDT 8:25 PM CDT
Moon 1:34 PM CDT (3/10) 3:27 AM CDT (3/10)
Length of Visible Light 12h 36m
Length of Day
11h 40m
Waxing Gibbous, 70% of the Moon is Illuminated
Mar 10
Waxing Gibbous
Mar 16
Full
Mar 23
Last Quarter
Mar 30
New
Apr 7
First Quarter

Hourly Weather History & Observations

Time (CDT) Temp. Windchill Dew Point Humidity Pressure Visibility Wind Dir Wind Speed Gust Speed Precip Events Conditions
12:10 AM 38.7 °F 32.4 °F 30.9 °F 74% 29.85 in 5.0 mi SSW 9.2 mph - N/A   Haze
12:35 AM 39.0 °F 33.4 °F 31.1 °F 73% 29.83 in 5.0 mi SSW 8.1 mph - N/A   Haze
12:55 AM 39.7 °F 33.2 °F 31.1 °F 71% 29.82 in 5.0 mi SW 10.4 mph - N/A   Haze
1:15 AM 40.5 °F 34.6 °F 31.1 °F 69% 29.81 in 7.0 mi SW 9.2 mph - N/A   Clear
1:35 AM 40.6 °F 34.3 °F 30.9 °F 68% 29.80 in 7.0 mi SW 10.4 mph 17.3 mph N/A   Clear
1:55 AM 41.0 °F 35.8 °F 31.1 °F 68% 29.80 in 7.0 mi SW 8.1 mph 16.1 mph N/A   Clear
2:15 AM 41.0 °F 35.2 °F 31.1 °F 68% 29.80 in 7.0 mi SW 9.2 mph - N/A   Clear
2:35 AM 41.0 °F 35.8 °F 31.1 °F 68% 29.79 in 7.0 mi SW 8.1 mph - N/A   Clear
2:55 AM 40.3 °F 36.3 °F 31.1 °F 70% 29.79 in 7.0 mi SW 5.8 mph - N/A   Scattered Clouds
3:15 AM 39.9 °F 36.7 °F 31.1 °F 71% 29.78 in 7.0 mi SW 4.6 mph - N/A   Scattered Clouds
3:35 AM 40.1 °F 38.0 °F 31.1 °F 70% 29.78 in 7.0 mi SW 3.5 mph - N/A   Clear
3:55 AM 40.1 °F 35.3 °F 31.1 °F 70% 29.78 in 10.0 mi SW 6.9 mph - N/A   Clear
4:15 AM 41.0 °F 36.4 °F 31.1 °F 68% 29.77 in 10.0 mi SW 6.9 mph - N/A   Light Drizzle
4:35 AM 41.0 °F 35.8 °F 31.3 °F 68% 29.77 in 10.0 mi SW 8.1 mph - N/A   Scattered Clouds
4:55 AM 41.0 °F 35.2 °F 31.6 °F 69% 29.77 in 10.0 mi WSW 9.2 mph - N/A   Mostly Cloudy
5:15 AM 40.6 °F 36.0 °F 31.6 °F 70% 29.77 in 10.0 mi SW 6.9 mph - N/A   Scattered Clouds
5:35 AM 40.6 °F 34.3 °F 31.8 °F 71% 29.76 in 10.0 mi WSW 10.4 mph - N/A   Clear
5:55 AM 40.6 °F 34.3 °F 32.0 °F 71% 29.76 in 10.0 mi SW 10.4 mph - N/A   Clear
6:15 AM 40.6 °F 35.4 °F 32.0 °F 71% 29.75 in 10.0 mi SW 8.1 mph - N/A   Clear
6:35 AM 40.5 °F 35.1 °F 32.0 °F 72% 29.74 in 10.0 mi SW 8.1 mph - N/A   Clear
6:55 AM 41.0 °F 34.7 °F 32.0 °F 70% 29.74 in 10.0 mi WSW 10.4 mph - N/A   Clear
7:15 AM 40.1 °F 38.0 °F 32.0 °F 73% 29.75 in 10.0 mi SW 3.5 mph - N/A   Clear
7:35 AM 39.7 °F 37.6 °F 32.0 °F 74% 29.76 in 10.0 mi SW 3.5 mph - N/A   Clear
7:55 AM 39.6 °F 36.3 °F 32.0 °F 74% 29.76 in 10.0 mi SSW 4.6 mph - N/A   Clear
8:15 AM 39.7 °F 35.6 °F 32.0 °F 74% 29.74 in 10.0 mi SSW 5.8 mph - N/A   Clear
8:35 AM 40.8 °F 37.8 °F 32.0 °F 71% 29.75 in 10.0 mi SW 4.6 mph - N/A   Clear
8:55 AM 42.3 °F 38.6 °F 32.5 °F 68% 29.75 in 10.0 mi SW 5.8 mph - N/A   Clear
9:15 AM 43.5 °F 39.4 °F 32.7 °F 66% 29.74 in 10.0 mi WSW 6.9 mph - N/A   Clear
9:35 AM 44.1 °F 39.5 °F 32.7 °F 64% 29.74 in 10.0 mi WSW 8.1 mph - N/A   Clear
9:55 AM 45.5 °F 39.6 °F 32.7 °F 61% 29.74 in 10.0 mi WSW 12.7 mph 17.3 mph N/A   Clear
10:15 AM 46.2 °F 40.1 °F 32.4 °F 58% 29.74 in 10.0 mi WSW 13.8 mph 20.7 mph N/A   Clear
10:35 AM 46.9 °F - 33.3 °F 59% 29.74 in 10.0 mi WSW 12.7 mph 17.3 mph N/A   Clear
10:55 AM 46.6 °F - 33.3 °F 60% 29.74 in 10.0 mi WSW 11.5 mph 17.3 mph N/A   Clear
11:15 AM 47.3 °F - 33.4 °F 59% 29.74 in 10.0 mi WSW 10.4 mph 17.3 mph N/A   Clear
11:35 AM 48.0 °F - 34.0 °F 58% 29.74 in 10.0 mi WSW 11.5 mph - N/A   Clear
11:55 AM 49.3 °F - 34.5 °F 57% 29.74 in 10.0 mi WSW 13.8 mph - N/A   Clear
12:15 PM 49.1 °F - 34.0 °F 56% 29.73 in 10.0 mi WSW 11.5 mph 17.3 mph N/A   Clear
12:35 PM 50.2 °F - 34.5 °F 55% 29.73 in 10.0 mi WSW 8.1 mph - N/A   Clear
12:55 PM 50.5 °F - 34.3 °F 54% 29.72 in 10.0 mi WSW 10.4 mph - N/A   Clear
1:15 PM 50.9 °F - 34.5 °F 54% 29.71 in 10.0 mi WSW 12.7 mph 16.1 mph N/A   Clear
1:35 PM 51.6 °F - 34.5 °F 52% 29.71 in 10.0 mi WSW 11.5 mph - N/A   Clear
1:55 PM 51.8 °F - 34.3 °F 51% 29.70 in 10.0 mi WSW 13.8 mph 17.3 mph N/A   Clear
2:15 PM 52.5 °F - 34.9 °F 51% 29.70 in 10.0 mi WSW 10.4 mph - N/A   Clear
2:35 PM 52.7 °F - 34.7 °F 50% 29.70 in 10.0 mi WSW 10.4 mph 17.3 mph N/A   Clear
2:55 PM 53.1 °F - 35.2 °F 51% 29.69 in 10.0 mi WSW 10.4 mph 16.1 mph N/A   Clear
3:15 PM 53.8 °F - 36.3 °F 52% 29.69 in 10.0 mi WSW 8.1 mph - N/A   Clear
3:35 PM 53.8 °F - 37.2 °F 54% 29.70 in 10.0 mi WSW 8.1 mph - N/A   Clear
3:55 PM 53.6 °F - 38.3 °F 56% 29.70 in 10.0 mi West 8.1 mph - N/A   Clear
4:15 PM 53.1 °F - 37.6 °F 56% 29.70 in 10.0 mi WSW 8.1 mph - N/A   Clear
4:35 PM 52.7 °F - 37.4 °F 56% 29.69 in 10.0 mi WSW 9.2 mph - N/A   Clear
4:55 PM 52.9 °F - 38.3 °F 58% 29.69 in 10.0 mi WSW 8.1 mph - N/A   Clear
5:15 PM 52.2 °F - 37.8 °F 58% 29.69 in 10.0 mi WSW 9.2 mph - N/A   Clear
5:35 PM 52.0 °F - 38.3 °F 60% 29.69 in 10.0 mi WSW 9.2 mph - N/A   Clear
5:55 PM 51.6 °F - 37.8 °F 59% 29.70 in 10.0 mi WSW 9.2 mph - N/A   Clear
6:15 PM 50.2 °F - 37.8 °F 62% 29.70 in 10.0 mi WSW 8.1 mph - N/A   Clear
6:35 PM 49.5 °F - 37.6 °F 64% 29.69 in 10.0 mi WSW 8.1 mph - N/A   Clear
6:55 PM 48.7 °F - 37.4 °F 65% 29.70 in 10.0 mi WSW 4.6 mph - N/A   Clear
7:15 PM 47.1 °F - 37.2 °F 68% 29.71 in 10.0 mi WSW 3.5 mph - N/A   Clear
7:35 PM 47.5 °F - 37.8 °F 69% 29.71 in 10.0 mi Calm Calm - N/A   Clear
7:55 PM 45.1 °F 43.7 °F 37.4 °F 74% 29.71 in 10.0 mi SW 3.5 mph - N/A   Clear
8:15 PM 44.1 °F - 37.4 °F 77% 29.71 in 10.0 mi Calm Calm - N/A   Clear
8:35 PM 42.4 °F - 36.5 °F 79% 29.71 in 10.0 mi Calm Calm - N/A   Clear
8:55 PM 42.6 °F - 36.9 °F 80% 29.71 in 10.0 mi Calm Calm - N/A   Clear
9:15 PM 43.0 °F - 36.7 °F 78% 29.71 in 10.0 mi Calm Calm - N/A   Clear
9:35 PM 42.6 °F - 36.5 °F 79% 29.71 in 10.0 mi Calm Calm - N/A   Clear
9:55 PM 41.7 °F - 36.1 °F 81% 29.71 in 10.0 mi Calm Calm - N/A   Clear
10:15 PM 42.4 °F - 35.6 °F 77% 29.70 in 10.0 mi Calm Calm - N/A   Clear
10:35 PM 38.5 °F - 34.3 °F 85% 29.70 in 10.0 mi Calm Calm - N/A   Clear
10:55 PM 37.4 °F - 33.8 °F 87% 29.71 in 7.0 mi Calm Calm - N/A   Clear
11:15 PM 35.4 °F - 33.1 °F 91% 29.71 in 5.0 mi Calm Calm - N/A   Clear
11:35 PM 35.8 °F - 33.1 °F 90% 29.70 in 5.0 mi Calm Calm - N/A   Clear
11:55 PM 34.7 °F - 32.4 °F 91% 29.70 in 5.0 mi Calm Calm - N/A   Clear